Change the Weather History Date:

Friday, July 20, 2012

  Actual Average Record
Temperature  
Mean Temperature 78 °F 82 °F  
Max Temperature 85 °F 91 °F 101 °F (2000)
Min Temperature 71 °F 73 °F 64 °F (1923)
Cooling Degree Days 13 17  
Month to date cooling degree days 327 338  
Year to date cooling degree days 1484 1227  
Since 1 June cooling degree days 778 782  
Growing Degree Days 28 (Base 50)    
Moisture  
Dew Point 73 °F    
Average Humidity 82    
Maximum Humidity 94    
Minimum Humidity 69    
Precipitation  
Precipitation 0.04 in 0.24 in 1.49 in (1879)
Month to date precipitation 4.67 4.66  
Year to date precipitation 44.68 37.61  
Sea Level Pressure  
Sea Level Pressure 30.04 in    
Wind  
Wind Speed 4 mph (SSW)    
Max Wind Speed 20 mph    
Max Gust Speed 21 mph    
Visibility 10 miles    
Events Rain    
T = Trace of Precipitation, MM = Missing Value Source: NWS Daily Summary

Daily Weather History Graph

Daily Weather History Graph

Search for Another Location

Airport or City:

Trip Planner

Search our weather history database for the weather conditions in past years. The results will help you decide how hot, cold, wet, or windy it might be!

Date:

Astronomy

Jul. 20, 2012 Rise Set
Actual Time 6:03 AM CDT 7:54 PM CDT
Civil Twilight 5:36 AM CDT 8:21 PM CDT
Nautical Twilight 5:04 AM CDT 8:53 PM CDT
Astronomical Twilight 4:30 AM CDT 9:28 PM CDT
Moon 7:30 AM CDT (7/20) 8:47 PM CDT (7/20)
Length of Visible Light 14h 44m
Length of Day
13h 50m
Waxing Crescent, 3% of the Moon is Illuminated
Jul 20
Waxing Crescent
Jul 26
First Quarter
Aug 1
Full
Aug 9
Last Quarter
Aug 17
New

Hourly Weather History & Observations

Time (CDT) Temp. Heat Index Dew Point Humidity Pressure Visibility Wind Dir Wind Speed Gust Speed Precip Events Conditions
12:56 AM 72.0 °F - 70.0 °F 93% 30.05 in 10.0 mi Calm Calm - N/A   Mostly Cloudy
1:56 AM 72.0 °F - 69.1 °F 91% 30.05 in 10.0 mi SW 3.5 mph - N/A   Mostly Cloudy
2:56 AM 72.0 °F - 69.1 °F 91% 30.04 in 10.0 mi SW 3.5 mph - N/A   Mostly Cloudy
3:21 AM 71.6 °F - 69.8 °F 94% 30.05 in 10.0 mi Calm Calm - N/A   Mostly Cloudy
3:56 AM 72.0 °F - 69.1 °F 91% 30.03 in 10.0 mi Calm Calm - N/A   Mostly Cloudy
4:56 AM 71.1 °F - 69.1 °F 93% 30.04 in 10.0 mi Calm Calm - N/A   Scattered Clouds
5:56 AM 73.0 °F - 70.0 °F 90% 30.05 in 10.0 mi Calm Calm - N/A   Overcast
6:56 AM 73.0 °F - 70.0 °F 90% 30.05 in 10.0 mi Calm Calm - N/A   Overcast
7:56 AM 77.0 °F - 73.0 °F 88% 30.06 in 10.0 mi Calm Calm - N/A   Mostly Cloudy
8:31 AM 78.8 °F - 73.4 °F 83% 30.09 in 10.0 mi SSE 3.5 mph - N/A   Mostly Cloudy
8:42 AM 78.8 °F - 73.4 °F 83% 30.09 in 10.0 mi SSE 6.9 mph - N/A   Mostly Cloudy
8:56 AM 79.0 °F - 73.0 °F 82% 30.08 in 10.0 mi Variable 3.5 mph - N/A   Overcast
9:56 AM 81.0 °F 86.2 °F 73.9 °F 79% 30.07 in 10.0 mi South 6.9 mph - N/A   Overcast
10:26 AM 82.4 °F 88.2 °F 73.4 °F 74% 30.08 in 10.0 mi South 3.5 mph - N/A   Overcast
10:56 AM 82.0 °F 87.4 °F 73.0 °F 74% 30.06 in 10.0 mi SSW 3.5 mph - N/A   Overcast
11:10 AM 82.4 °F 88.2 °F 73.4 °F 74% 30.07 in 10.0 mi SW 4.6 mph - N/A   Overcast
11:53 AM 82.4 °F 88.2 °F 73.4 °F 74% 30.07 in 10.0 mi SSE 8.1 mph - N/A   Mostly Cloudy
11:56 AM 82.0 °F 87.9 °F 73.9 °F 76% 30.06 in 10.0 mi SSE 8.1 mph - N/A   Mostly Cloudy
12:48 PM 82.4 °F 88.2 °F 73.4 °F 74% 30.06 in 10.0 mi South 8.1 mph - N/A   Mostly Cloudy
12:56 PM 82.0 °F 87.9 °F 73.9 °F 76% 30.05 in 10.0 mi SSW 8.1 mph - N/A   Overcast
1:20 PM 80.6 °F 85.4 °F 73.4 °F 79% 30.06 in 10.0 mi West 5.8 mph - N/A   Overcast
1:34 PM 80.6 °F 85.4 °F 73.4 °F 79% 30.06 in 7.0 mi SW 4.6 mph - 0.02 in Rain Light Rain
1:56 PM 81.0 °F 86.7 °F 75.0 °F 82% 30.04 in 4.0 mi Calm Calm - 0.04 in Rain Light Rain
2:56 PM 84.0 °F 91.9 °F 75.0 °F 74% 30.02 in 10.0 mi SSW 6.9 mph - 0.00 in   Mostly Cloudy
3:20 PM 80.6 °F 86.2 °F 75.2 °F 84% 30.03 in 10.0 mi SSW 9.2 mph - N/A   Mostly Cloudy
3:56 PM 84.0 °F 91.2 °F 73.9 °F 72% 29.99 in 10.0 mi SSW 6.9 mph - N/A   Mostly Cloudy
4:56 PM 82.9 °F 88.0 °F 72.0 °F 69% 30.01 in 10.0 mi South 12.7 mph - N/A   Mostly Cloudy
5:56 PM 82.0 °F 87.4 °F 73.0 °F 74% 30.01 in 10.0 mi South 9.2 mph - N/A   Mostly Cloudy
6:32 PM 80.6 °F 85.4 °F 73.4 °F 79% 30.01 in 10.0 mi SSW 10.4 mph - N/A   Mostly Cloudy
6:52 PM 80.6 °F 85.4 °F 73.4 °F 79% 30.01 in 10.0 mi SSW 8.1 mph - N/A   Mostly Cloudy
6:56 PM 81.0 °F 85.8 °F 73.0 °F 77% 30.00 in 10.0 mi SSW 8.1 mph - N/A   Mostly Cloudy
7:56 PM 79.0 °F - 73.0 °F 82% 29.99 in 10.0 mi South 6.9 mph - N/A   Mostly Cloudy
8:56 PM 78.1 °F - 73.0 °F 84% 29.99 in 10.0 mi Calm Calm - N/A   Mostly Cloudy
9:53 PM 77.0 °F - 73.4 °F 89% 30.01 in 10.0 mi Calm Calm - N/A   Mostly Cloudy
9:56 PM 77.0 °F - 73.9 °F 90% 30.00 in 10.0 mi Calm Calm - N/A   Mostly Cloudy
10:12 PM 77.0 °F - 73.4 °F 89% 30.01 in 10.0 mi Calm Calm - N/A   Scattered Clouds
10:56 PM 75.9 °F - 73.0 °F 91% 30.00 in 10.0 mi SSW 3.5 mph - N/A   Mostly Cloudy
11:56 PM 75.0 °F - 73.0 °F 94% 30.01 in 9.0 mi Calm Calm - N/A   Mostly Cloudy